Weather History for Montrose, CO

Change the Weather History Date:

Sunday, May 5, 2013

  Actual Average Record
Temperature  
Mean Temperature 60 °F 55 °F  
Max Temperature 71 °F 69 °F 86 °F (2000)
Min Temperature 48 °F 40 °F 30 °F (1999)
Degree Days  
Heating Degree Days 5 10  
Month to date heating degree days 75 55  
Since 1 July heating degree days 5978 5993  
Cooling Degree Days 0 0  
Month to date cooling degree days 0 0  
Year to date cooling degree days 0 0  
Growing Degree Days 8 (Base 50)    
Moisture  
Dew Point 24 °F    
Average Humidity 28    
Maximum Humidity 42    
Minimum Humidity 14    
Precipitation  
Precipitation 0.00 in 0.04 in 0.67 in (2001)
Month to date precipitation 0.11 0.23  
Year to date precipitation 2.18 3.45  
Sea Level Pressure  
Sea Level Pressure 29.81 in    
Wind  
Wind Speed 9 mph (SE)    
Max Wind Speed 25 mph    
Max Gust Speed 35 mph    
Visibility 10 miles    
Events      
T = Trace of Precipitation, MM = Missing Value Source: NWS Daily Summary

Daily Weather History Graph

Daily Weather History Graph

Search for Another Location

Airport:

Trip Planner

Search our weather history database for the weather conditions in past years. The results will help you decide how hot, cold, wet, or windy it might be!

Date:

Astronomy

May. 05, 2013 Rise Set
Actual Time 6:09 AM MDT 8:07 PM MDT
Civil Twilight 5:40 AM MDT 8:36 PM MDT
Nautical Twilight 5:05 AM MDT 9:11 PM MDT
Astronomical Twilight 4:27 AM MDT 9:49 PM MDT
Moon 3:38 AM MDT (5/5) 4:12 PM MDT (5/5)
Length of Visible Light 14h 55m
Length of Day
13h 57m
Waning Crescent, 17% of the Moon is Illuminated
May 5
Waning Crescent
May 9
New
May 17
First Quarter
May 24
Full
May 31
Last Quarter

Hourly Weather History & Observations

Time (MDT) Temp. Dew Point Humidity Pressure Visibility Wind Dir Wind Speed Gust Speed Precip Events Conditions
12:53 AM 57.9 °F 27.0 °F 31% 29.77 in 10.0 mi SE 13.8 mph 20.7 mph N/A   Clear
1:53 AM 57.9 °F 25.0 °F 28% 29.74 in 10.0 mi ESE 20.7 mph 32.2 mph N/A   Partly Cloudy
2:53 AM 57.0 °F 25.0 °F 29% 29.76 in 10.0 mi ESE 12.7 mph 21.9 mph N/A   Clear
3:53 AM 55.0 °F 24.1 °F 30% 29.77 in 10.0 mi ESE 11.5 mph 17.3 mph N/A   Clear
4:53 AM 54.0 °F 24.1 °F 31% 29.78 in 10.0 mi East 9.2 mph - N/A   Clear
5:53 AM 50.0 °F 26.1 °F 39% 29.79 in 10.0 mi SSE 5.8 mph - N/A   Clear
6:53 AM 48.9 °F 26.1 °F 41% 29.81 in 10.0 mi Calm Calm - N/A   Clear
7:53 AM 55.0 °F 26.1 °F 33% 29.83 in 10.0 mi ENE 3.5 mph - N/A   Clear
8:53 AM 59.0 °F 25.0 °F 27% 29.84 in 10.0 mi East 9.2 mph - N/A   Clear
9:53 AM 62.1 °F 23.0 °F 22% 29.84 in 10.0 mi East 11.5 mph - N/A   Clear
10:53 AM 64.0 °F 18.0 °F 17% 29.85 in 10.0 mi ESE 4.6 mph - N/A   Clear
12:53 PM 68.0 °F 17.1 °F 14% 29.83 in 10.0 mi West 12.7 mph 21.9 mph N/A   Partly Cloudy
1:53 PM 66.9 °F 19.9 °F 17% 29.83 in 10.0 mi West 4.6 mph - N/A   Clear
2:53 PM 68.0 °F 25.0 °F 20% 29.82 in 10.0 mi SSE 15.0 mph 23.0 mph N/A   Partly Cloudy
3:53 PM 69.1 °F 21.9 °F 17% 29.80 in 10.0 mi SW 12.7 mph 17.3 mph N/A   Clear
4:53 PM 68.0 °F 21.9 °F 17% 29.79 in 10.0 mi ENE 8.1 mph - N/A   Partly Cloudy
5:53 PM 68.0 °F 21.0 °F 17% 29.79 in 10.0 mi Variable 4.6 mph - N/A   Mostly Cloudy
6:53 PM 66.9 °F 23.0 °F 19% 29.81 in 10.0 mi SSE 11.5 mph - N/A   Clear
7:53 PM 64.9 °F 23.0 °F 20% 29.81 in 10.0 mi South 15.0 mph - N/A   Mostly Cloudy
8:53 PM 61.0 °F 25.0 °F 25% 29.83 in 10.0 mi SSE 11.5 mph - N/A   Clear
9:53 PM 60.1 °F 27.0 °F 28% 29.84 in 10.0 mi South 10.4 mph - N/A   Overcast
10:53 PM 62.1 °F 25.0 °F 24% 29.84 in 10.0 mi South 9.2 mph - N/A   Overcast
11:53 PM 59.0 °F 28.0 °F 31% 29.84 in 10.0 mi South 4.6 mph - N/A   Overcast